User: anonymous   Login
Location: Elstree
(51.6403°N, 0.2969°W)
Time: 01:48:08
(UTC+00:00)
Language:

Okean-O - Orbit

View from above orbital plane
View from above orbital plane
View from above satellite
View from above satellite

Ground track
Ground track

The orbit data is extracted from the following two-line orbital elements,

1 25860U 99039A   21125.36939686  .00000050  00000-0  14680-4 0  9990
2 25860  98.1868 155.5208 0000835  84.9432 275.1872 14.76730166173021
Epoch (UTC): 05 May 2021 08:51:55
Eccentricity: 0.0000835
inclination: 98.1868°
perigee height: 639 km
apogee height: 640 km
right ascension of ascending node: 155.5208°
argument of perigee: 84.9432°
revolutions per day: 14.76730166
mean anomaly at epoch: 275.1872°
orbit number at epoch: 17302

The dashed part of the orbit path shows where the satellite is in the earth's shadow,  

DLR